Location: Göttingen
(51.5413°N, 9.9158°E)
Time: 06:51:21
(UTC+02:00)

BEESAT - Pass Details

Date: 04 July 2022
Orbit: 700 x 706 km, 98.6° (Epoch: 07 August)

Event Time Altitude Azimuth Distance (km) Brightness Sun altitude
Rises 22:43:42 0° 10° (N) 3,108 ? -7.7°
Reaches altitude 10° 22:46:04 10° 3° (N) 2,186 ? -7.9°
Maximum altitude 22:50:31 41° 295° (WNW) 1,026 ? -8.3°
Drops below altitude 10° 22:54:59 10° 226° (SW) 2,175 ? -8.7°
Sets 22:57:19 0° 219° (SW) 3,090 ? -8.9°
